Location: Piotrkow Trybunalski
(51.4000°N, 19.6830°E)
Time: 07:46:13
(UTC+02:00)

STRAND 1 - Pass Details

Date: 26 February 2024
Orbit: 764 x 779 km, 98.4° (Epoch: 24 April)

Event Time Altitude Azimuth Distance (km) Brightness Sun altitude
Rises 05:02:34 0° 162° (SSE) 3,251 ? -15.0°
Reaches altitude 10° 05:04:52 10° 163° (SSE) 2,328 ? -14.7°
Maximum altitude 05:10:01 89° 78° (ENE) 788 ? -13.9°
Drops below altitude 10° 05:15:13 10° 345° (NNW) 2,345 ? -13.0°
Sets 05:17:33 0° 346° (NNW) 3,277 ? -12.7°
